Location: Krasnoyarskiy Pitomnik
(51.1333°N, 71.6167°E)
Time: 15:19:47
(UTC+00:00)

Cosmos 2360 Rocket - Pass Details

Date: 22 October 2021
Orbit: 832 x 846 km, 71.0° (Epoch: 27 November)

Event Time Altitude Azimuth Distance (km) Brightness Sun altitude
Rises 13:40:20 0° 172° (S) 3,376 5.2 -15.4°
Reaches altitude 10° 13:43:03 10° 161° (SSE) 2,449 4.4 -15.8°
Maximum altitude 13:47:46 28° 104° (ESE) 1,523 3.0 -16.5°
Enters shadow 13:48:43 27° 87° (E) 1,574 3.0 -16.7°
